contact:dominique.lefevre@mio.osupytheas.fr, maurice.libes@osupytheas.fr, didier.mallarino@osupytheas.fr
Project:EMSO http://www.emso-fr.org/EMSO-France
Depth: 2436.0 m
Title:EMSO Ligure Ouest : Data MII capteur CSTAR
DateTime,Latitude,Longitude,Instrument_Serial,Reference_Counts,Signal_Counts,Corrected_Signal_raw_counts,Calculated_Beam_c_inverse_meters,Internal_thermistor_counts
DateTime,Latitude,Longitude,Instrument_Serial,Reference_Counts,Signal_Counts,Corrected_Signal_raw_counts,Calculated_Beam_c_inverse_meters,Internal_thermistor_counts
2021-04-25T00:00:06,42.805,6.029,CST-1368DR,5510,7698,15003,0.160,551
2021-04-25T00:03:08,42.805,6.029,CST-1368DR,5510,7696,15001,0.161,551
2021-04-25T00:06:09,42.805,6.029,CST-1368DR,5510,7697,15001,0.161,551
2021-04-25T00:09:11,42.805,6.029,CST-1368DR,5510,7697,15003,0.160,551
2021-04-25T00:12:13,42.805,6.029,CST-1368DR,5510,7695,14998,0.162,551
2021-04-25T00:15:14,42.805,6.029,CST-1368DR,5510,7695,14998,0.162,551
2021-04-25T00:18:16,42.805,6.029,CST-1368DR,5510,7697,15003,0.160,551
2021-04-25T00:21:17,42.805,6.029,CST-1368DR,5510,7698,15003,0.160,551
2021-04-25T00:24:19,42.805,6.029,CST-1368DR,5510,7694,14995,0.162,551
2021-04-25T00:27:21,42.805,6.029,CST-1368DR,5510,7697,15002,0.160,551
2021-04-25T00:30:22,42.805,6.029,CST-1368DR,5510,7697,15003,0.160,551
2021-04-25T00:33:24,42.805,6.029,CST-1368DR,5510,7696,15000,0.161,551
2021-04-25T00:36:25,42.805,6.029,CST-1368DR,5510,7697,15002,0.160,551
2021-04-25T00:39:27,42.805,6.029,CST-1368DR,5510,7692,14992,0.163,551
2021-04-25T00:42:28,42.805,6.029,CST-1368DR,5510,7697,15001,0.161,551
2021-04-25T00:45:30,42.805,6.029,CST-1368DR,5510,7697,15002,0.160,551
2021-04-25T00:48:32,42.805,6.029,CST-1368DR,5510,7696,15001,0.161,551
2021-04-25T00:51:33,42.805,6.029,CST-1368DR,5510,7697,15001,0.161,551
2021-04-25T00:54:35,42.805,6.029,CST-1368DR,5510,7696,15000,0.161,551
2021-04-25T00:57:36,42.805,6.029,CST-1368DR,5510,7697,15001,0.161,551
2021-04-25T01:00:38,42.805,6.029,CST-1368DR,5510,7698,15003,0.160,551
2021-04-25T01:03:40,42.805,6.029,CST-1368DR,5510,7698,15003,0.160,551
2021-04-25T01:06:41,42.805,6.029,CST-1368DR,5510,7697,15002,0.160,551
2021-04-25T01:09:43,42.805,6.029,CST-1368DR,5510,7696,15001,0.161,550
2021-04-25T01:12:44,42.805,6.029,CST-1368DR,5510,7695,14997,0.162,551
2021-04-25T01:15:46,42.805,6.029,CST-1368DR,5510,7696,14999,0.161,551
2021-04-25T01:18:47,42.805,6.029,CST-1368DR,5510,7696,15001,0.161,551
2021-04-25T01:21:49,42.805,6.029,CST-1368DR,5510,7697,15001,0.161,551
2021-04-25T01:24:51,42.805,6.029,CST-1368DR,5510,7697,15002,0.160,551
2021-04-25T01:27:52,42.805,6.029,CST-1368DR,5510,7694,14996,0.162,551
2021-04-25T01:30:54,42.805,6.029,CST-1368DR,5510,7696,15000,0.161,551
2021-04-25T01:33:55,42.805,6.029,CST-1368DR,5510,7696,15001,0.161,551
2021-04-25T01:36:57,42.805,6.029,CST-1368DR,5510,7696,15001,0.161,551
2021-04-25T01:39:59,42.805,6.029,CST-1368DR,5510,7696,15001,0.161,551
2021-04-25T01:43:00,42.805,6.029,CST-1368DR,5510,7696,15000,0.161,551
2021-04-25T01:46:02,42.805,6.029,CST-1368DR,5510,7696,15000,0.161,551
2021-04-25T01:49:03,42.805,6.029,CST-1368DR,5510,7697,15001,0.161,551
2021-04-25T01:52:05,42.805,6.029,CST-1368DR,5510,7695,14998,0.162,551
2021-04-25T01:55:06,42.805,6.029,CST-1368DR,5510,7696,15000,0.161,551
2021-04-25T01:58:08,42.805,6.029,CST-1368DR,5510,7696,15001,0.161,551
2021-04-25T02:01:10,42.805,6.029,CST-1368DR,5510,7695,14999,0.161,551
2021-04-25T02:04:11,42.805,6.029,CST-1368DR,5510,7696,15000,0.161,551
2021-04-25T02:07:13,42.805,6.029,CST-1368DR,5510,7697,15002,0.160,551
2021-04-25T02:10:14,42.805,6.029,CST-1368DR,5510,7696,15001,0.161,551
2021-04-25T02:13:16,42.805,6.029,CST-1368DR,5510,7697,15001,0.161,551
2021-04-25T02:16:17,42.805,6.029,CST-1368DR,5510,7697,15002,0.160,551
2021-04-25T02:19:19,42.805,6.029,CST-1368DR,5510,7696,15001,0.161,551
2021-04-25T02:22:21,42.805,6.029,CST-1368DR,5510,7696,15001,0.161,551
2021-04-25T02:25:22,42.805,6.029,CST-1368DR,5510,7697,15003,0.160,551
2021-04-25T02:28:24,42.805,6.029,CST-1368DR,5510,7696,15000,0.161,551
2021-04-25T02:31:25,42.805,6.029,CST-1368DR,5510,7695,14999,0.161,551
2021-04-25T02:34:27,42.805,6.029,CST-1368DR,5510,7694,14996,0.162,551
2021-04-25T02:37:29,42.805,6.029,CST-1368DR,5510,7695,14999,0.161,551
2021-04-25T02:40:30,42.805,6.029,CST-1368DR,5510,7697,15002,0.160,551
2021-04-25T02:43:32,42.805,6.029,CST-1368DR,5510,7698,15003,0.160,551
2021-04-25T02:46:33,42.805,6.029,CST-1368DR,5510,7697,15001,0.161,551
2021-04-25T02:49:35,42.805,6.029,CST-1368DR,5510,7696,15000,0.161,551
2021-04-25T02:52:36,42.805,6.029,CST-1368DR,5510,7694,14996,0.162,551
2021-04-25T02:55:38,42.805,6.029,CST-1368DR,5510,7697,15003,0.160,551
2021-04-25T02:58:40,42.805,6.029,CST-1368DR,5510,7696,15000,0.161,551
2021-04-25T03:01:41,42.805,6.029,CST-1368DR,5510,7697,15001,0.161,551
2021-04-25T03:04:43,42.805,6.029,CST-1368DR,5510,7696,15000,0.161,551
2021-04-25T03:07:44,42.805,6.029,CST-1368DR,5510,7694,14995,0.162,551
2021-04-25T03:10:46,42.805,6.029,CST-1368DR,5510,7696,15001,0.161,551
2021-04-25T03:13:48,42.805,6.029,CST-1368DR,5510,7697,15002,0.160,551
2021-04-25T03:16:49,42.805,6.029,CST-1368DR,5510,7696,15000,0.161,551
2021-04-25T03:19:51,42.805,6.029,CST-1368DR,5510,7693,14995,0.162,551
2021-04-25T03:22:52,42.805,6.029,CST-1368DR,5510,7697,15002,0.160,551
2021-04-25T03:25:54,42.805,6.029,CST-1368DR,5510,7696,15000,0.161,551
2021-04-25T03:28:55,42.805,6.029,CST-1368DR,5510,7697,15001,0.161,551
2021-04-25T03:31:57,42.805,6.029,CST-1368DR,5510,7697,15002,0.160,551
2021-04-25T03:34:59,42.805,6.029,CST-1368DR,5510,7695,14998,0.162,551
2021-04-25T03:38:00,42.805,6.029,CST-1368DR,5510,7696,15000,0.161,551
2021-04-25T03:41:02,42.805,6.029,CST-1368DR,5510,7696,15001,0.161,551
2021-04-25T03:44:03,42.805,6.029,CST-1368DR,5510,7696,15000,0.161,551
2021-04-25T03:47:05,42.805,6.029,CST-1368DR,5510,7697,15001,0.161,551
2021-04-25T03:50:06,42.805,6.029,CST-1368DR,5510,7696,15000,0.161,551
2021-04-25T03:53:08,42.805,6.029,CST-1368DR,5510,7697,15002,0.160,551
2021-04-25T03:56:10,42.805,6.029,CST-1368DR,5510,7697,15002,0.160,551
2021-04-25T03:59:11,42.805,6.029,CST-1368DR,5510,7697,15001,0.161,551
2021-04-25T04:02:13,42.805,6.029,CST-1368DR,5510,7698,15003,0.160,551
2021-04-25T04:05:14,42.805,6.029,CST-1368DR,5510,7697,15001,0.161,550
2021-04-25T04:08:16,42.805,6.029,CST-1368DR,5510,7696,14999,0.161,551
2021-04-25T04:11:18,42.805,6.029,CST-1368DR,5510,7695,14999,0.161,551
2021-04-25T04:14:19,42.805,6.029,CST-1368DR,5510,7696,15000,0.161,551
2021-04-25T04:17:21,42.805,6.029,CST-1368DR,5510,7696,15000,0.161,551
2021-04-25T04:20:22,42.805,6.029,CST-1368DR,5510,7696,15000,0.161,551
2021-04-25T04:23:24,42.805,6.029,CST-1368DR,5510,7697,15002,0.160,551
2021-04-25T04:26:25,42.805,6.029,CST-1368DR,5510,7696,14999,0.161,551
2021-04-25T04:29:27,42.805,6.029,CST-1368DR,5510,7696,15001,0.161,551
2021-04-25T04:32:29,42.805,6.029,CST-1368DR,5510,7697,15001,0.161,551
2021-04-25T04:35:30,42.805,6.029,CST-1368DR,5510,7696,15001,0.161,551
2021-04-25T04:38:32,42.805,6.029,CST-1368DR,5510,7696,15000,0.161,551
2021-04-25T04:41:33,42.805,6.029,CST-1368DR,5510,7697,15002,0.160,551
2021-04-25T04:44:35,42.805,6.029,CST-1368DR,5510,7697,15001,0.161,551
2021-04-25T04:47:36,42.805,6.029,CST-1368DR,5510,7695,14997,0.162,551
2021-04-25T04:50:38,42.805,6.029,CST-1368DR,5510,7696,15001,0.161,551
2021-04-25T04:53:40,42.805,6.029,CST-1368DR,5510,7697,15002,0.160,551
2021-04-25T04:56:41,42.805,6.029,CST-1368DR,5510,7694,14996,0.162,551
2021-04-25T04:59:43,42.805,6.029,CST-1368DR,5510,7696,15001,0.161,551
2021-04-25T05:02:44,42.805,6.029,CST-1368DR,5510,7696,14999,0.161,551
2021-04-25T05:05:46,42.805,6.029,CST-1368DR,5510,7697,15002,0.160,551
2021-04-25T05:08:48,42.805,6.029,CST-1368DR,5510,7697,15001,0.161,551
2021-04-25T05:11:49,42.805,6.029,CST-1368DR,5510,7697,15002,0.160,551
2021-04-25T05:14:51,42.805,6.029,CST-1368DR,5510,7697,15002,0.160,551
2021-04-25T05:17:52,42.805,6.029,CST-1368DR,5510,7697,15002,0.160,551
2021-04-25T05:20:54,42.805,6.029,CST-1368DR,5510,7697,15002,0.160,551
2021-04-25T05:23:55,42.805,6.029,CST-1368DR,5510,7698,15003,0.160,551
2021-04-25T05:26:57,42.805,6.029,CST-1368DR,5510,7696,15000,0.161,551
2021-04-25T05:29:59,42.805,6.029,CST-1368DR,5510,7697,15002,0.160,551
2021-04-25T05:33:00,42.805,6.029,CST-1368DR,5510,7697,15001,0.161,551
2021-04-25T05:36:02,42.805,6.029,CST-1368DR,5510,7695,14998,0.162,551
2021-04-25T05:39:03,42.805,6.029,CST-1368DR,5510,7697,15002,0.160,551
2021-04-25T05:42:05,42.805,6.029,CST-1368DR,5510,7697,15001,0.161,551
2021-04-25T05:45:07,42.805,6.029,CST-1368DR,5510,7695,14997,0.162,551
2021-04-25T05:48:08,42.805,6.029,CST-1368DR,5510,7696,15001,0.161,551
2021-04-25T05:51:10,42.805,6.029,CST-1368DR,5510,7696,15000,0.161,551
2021-04-25T05:54:11,42.805,6.029,CST-1368DR,5510,7696,14999,0.161,551
2021-04-25T05:57:13,42.805,6.029,CST-1368DR,5510,7696,14999,0.161,551
2021-04-25T06:00:14,42.805,6.029,CST-1368DR,5510,7696,14999,0.161,551
2021-04-25T06:03:16,42.805,6.029,CST-1368DR,5510,7696,15000,0.161,551
2021-04-25T06:06:18,42.805,6.029,CST-1368DR,5510,7697,15001,0.161,551
2021-04-25T06:09:19,42.805,6.029,CST-1368DR,5510,7697,15002,0.160,551
2021-04-25T06:12:21,42.805,6.029,CST-1368DR,5510,7698,15004,0.160,551
2021-04-25T06:15:22,42.805,6.029,CST-1368DR,5510,7697,15003,0.160,551
2021-04-25T06:18:24,42.805,6.029,CST-1368DR,5510,7697,15003,0.160,551
2021-04-25T06:21:25,42.805,6.029,CST-1368DR,5510,7697,15003,0.160,551
2021-04-25T06:24:27,42.805,6.029,CST-1368DR,5510,7696,15001,0.161,551
2021-04-25T06:27:29,42.805,6.029,CST-1368DR,5510,7697,15003,0.160,551
2021-04-25T06:30:30,42.805,6.029,CST-1368DR,5510,7697,15002,0.160,551
2021-04-25T06:33:32,42.805,6.029,CST-1368DR,5510,7697,15003,0.160,551
2021-04-25T06:36:33,42.805,6.029,CST-1368DR,5510,7697,15002,0.160,551
2021-04-25T06:39:35,42.805,6.029,CST-1368DR,5509,7696,15003,0.160,551
2021-04-25T06:42:37,42.805,6.029,CST-1368DR,5509,7696,15003,0.160,551
2021-04-25T06:45:38,42.805,6.029,CST-1368DR,5510,7696,15000,0.161,551
2021-04-25T06:48:40,42.805,6.029,CST-1368DR,5510,7696,14999,0.161,551
2021-04-25T06:51:41,42.805,6.029,CST-1368DR,5510,7696,15000,0.161,551
2021-04-25T06:54:43,42.805,6.029,CST-1368DR,5509,7696,15003,0.160,551
2021-04-25T06:57:44,42.805,6.029,CST-1368DR,5509,7697,15004,0.160,551
2021-04-25T07:00:46,42.805,6.029,CST-1368DR,5509,7696,15003,0.160,551
2021-04-25T07:03:48,42.805,6.029,CST-1368DR,5509,7695,15001,0.161,551
2021-04-25T07:06:49,42.805,6.029,CST-1368DR,5509,7697,15005,0.160,551
2021-04-25T07:09:51,42.805,6.029,CST-1368DR,5509,7695,15001,0.161,551
2021-04-25T07:12:52,42.805,6.029,CST-1368DR,5509,7696,15002,0.160,551
2021-04-25T07:15:54,42.805,6.029,CST-1368DR,5509,7697,15004,0.160,551
2021-04-25T07:18:55,42.805,6.029,CST-1368DR,5509,7697,15004,0.160,551
2021-04-25T07:21:57,42.805,6.029,CST-1368DR,5509,7696,15003,0.160,551
2021-04-25T07:24:59,42.805,6.029,CST-1368DR,5509,7697,15004,0.160,551
2021-04-25T07:28:00,42.805,6.029,CST-1368DR,5509,7697,15004,0.160,551
2021-04-25T07:31:02,42.805,6.029,CST-1368DR,5509,7696,15002,0.160,551
2021-04-25T07:34:03,42.805,6.029,CST-1368DR,5509,7697,15004,0.160,551
2021-04-25T07:37:05,42.805,6.029,CST-1368DR,5509,7697,15004,0.160,551
2021-04-25T07:40:07,42.805,6.029,CST-1368DR,5509,7696,15003,0.160,551
2021-04-25T07:43:08,42.805,6.029,CST-1368DR,5509,7695,15000,0.161,551
2021-04-25T07:46:10,42.805,6.029,CST-1368DR,5509,7696,15003,0.160,551
2021-04-25T07:49:11,42.805,6.029,CST-1368DR,5509,7695,15001,0.161,551
2021-04-25T07:52:13,42.805,6.029,CST-1368DR,5509,7696,15003,0.160,551
2021-04-25T07:55:14,42.805,6.029,CST-1368DR,5509,7696,15002,0.160,551
2021-04-25T07:58:16,42.805,6.029,CST-1368DR,5509,7697,15004,0.160,551
2021-04-25T08:01:18,42.805,6.029,CST-1368DR,5509,7694,14998,0.162,551
2021-04-25T08:04:19,42.805,6.029,CST-1368DR,5509,7696,15003,0.160,551
2021-04-25T08:07:21,42.805,6.029,CST-1368DR,5509,7696,15003,0.160,551
2021-04-25T08:10:22,42.805,6.029,CST-1368DR,5509,7696,15003,0.160,551
2021-04-25T08:13:24,42.805,6.029,CST-1368DR,5509,7697,15005,0.160,551
2021-04-25T08:16:26,42.805,6.029,CST-1368DR,5509,7696,15003,0.160,551
2021-04-25T08:19:27,42.805,6.029,CST-1368DR,5509,7697,15004,0.160,551
2021-04-25T08:22:29,42.805,6.029,CST-1368DR,5509,7696,15003,0.160,551
2021-04-25T08:25:30,42.805,6.029,CST-1368DR,5509,7696,15002,0.160,551
2021-04-25T08:28:32,42.805,6.029,CST-1368DR,5509,7696,15003,0.160,551
2021-04-25T08:31:33,42.805,6.029,CST-1368DR,5509,7695,15001,0.161,551
2021-04-25T08:34:35,42.805,6.029,CST-1368DR,5509,7695,15001,0.161,551
2021-04-25T08:37:37,42.805,6.029,CST-1368DR,5509,7696,15002,0.160,551
2021-04-25T08:40:38,42.805,6.029,CST-1368DR,5509,7695,15000,0.161,551
2021-04-25T08:43:40,42.805,6.029,CST-1368DR,5509,7696,15002,0.160,551
2021-04-25T08:46:41,42.805,6.029,CST-1368DR,5509,7693,14997,0.162,551
2021-04-25T08:49:43,42.805,6.029,CST-1368DR,5509,7694,14998,0.162,551
2021-04-25T08:52:45,42.805,6.029,CST-1368DR,5509,7694,14999,0.161,551
2021-04-25T08:55:46,42.805,6.029,CST-1368DR,5509,7695,15001,0.161,551
2021-04-25T08:58:48,42.805,6.029,CST-1368DR,5509,7693,14997,0.162,551
2021-04-25T09:01:49,42.805,6.029,CST-1368DR,5509,7696,15002,0.160,551
2021-04-25T09:04:51,42.805,6.029,CST-1368DR,5509,7695,15000,0.161,551
2021-04-25T09:07:52,42.805,6.029,CST-1368DR,5509,7685,14982,0.166,551
2021-04-25T09:10:54,42.805,6.029,CST-1368DR,5509,7694,14998,0.162,551
2021-04-25T09:13:56,42.805,6.029,CST-1368DR,5509,7694,14999,0.161,551
2021-04-25T09:16:57,42.805,6.029,CST-1368DR,5509,7695,15001,0.161,551
2021-04-25T09:19:59,42.805,6.029,CST-1368DR,5509,7695,15000,0.161,551
2021-04-25T09:23:00,42.805,6.029,CST-1368DR,5509,7695,15001,0.161,551
2021-04-25T09:26:02,42.805,6.029,CST-1368DR,5509,7694,14998,0.162,551
2021-04-25T09:29:04,42.805,6.029,CST-1368DR,5509,7694,14999,0.161,551
2021-04-25T09:32:05,42.805,6.029,CST-1368DR,5509,7695,15000,0.161,551
2021-04-25T09:35:07,42.805,6.029,CST-1368DR,5509,7693,14996,0.162,551
2021-04-25T09:38:08,42.805,6.029,CST-1368DR,5509,7693,14997,0.162,551
2021-04-25T09:41:10,42.805,6.029,CST-1368DR,5509,7692,14994,0.163,551
2021-04-25T09:44:11,42.805,6.029,CST-1368DR,5509,7692,14995,0.162,551
2021-04-25T09:47:13,42.805,6.029,CST-1368DR,5509,7694,14998,0.162,551
2021-04-25T09:50:15,42.805,6.029,CST-1368DR,5509,7692,14995,0.162,551
2021-04-25T09:53:16,42.805,6.029,CST-1368DR,5509,7694,14998,0.162,551
2021-04-25T09:56:18,42.805,6.029,CST-1368DR,5509,7694,14998,0.162,551
2021-04-25T09:59:19,42.805,6.029,CST-1368DR,5509,7694,14998,0.162,551
2021-04-25T10:02:21,42.805,6.029,CST-1368DR,5509,7694,14998,0.162,551
2021-04-25T10:05:22,42.805,6.029,CST-1368DR,5509,7693,14997,0.162,550
2021-04-25T10:08:24,42.805,6.029,CST-1368DR,5509,7693,14996,0.162,551
2021-04-25T10:11:26,42.805,6.029,CST-1368DR,5509,7694,14998,0.162,551
2021-04-25T10:14:27,42.805,6.029,CST-1368DR,5509,7693,14997,0.162,551
2021-04-25T10:17:29,42.805,6.029,CST-1368DR,5509,7693,14996,0.162,551
2021-04-25T10:20:30,42.805,6.029,CST-1368DR,5509,7695,15000,0.161,551
2021-04-25T10:23:32,42.805,6.029,CST-1368DR,5509,7694,14999,0.161,551
2021-04-25T10:26:34,42.805,6.029,CST-1368DR,5509,7695,15000,0.161,551
2021-04-25T10:29:35,42.805,6.029,CST-1368DR,5509,7693,14996,0.162,551
2021-04-25T10:32:37,42.805,6.029,CST-1368DR,5509,7695,15000,0.161,551
2021-04-25T10:35:38,42.805,6.029,CST-1368DR,5509,7694,14998,0.162,551
2021-04-25T10:38:40,42.805,6.029,CST-1368DR,5509,7692,14995,0.162,551
2021-04-25T10:41:41,42.805,6.029,CST-1368DR,5509,7693,14997,0.162,551
2021-04-25T10:44:43,42.805,6.029,CST-1368DR,5509,7692,14995,0.162,551
2021-04-25T10:47:45,42.805,6.029,CST-1368DR,5509,7692,14995,0.162,551
2021-04-25T10:50:46,42.805,6.029,CST-1368DR,5509,7692,14995,0.162,551
2021-04-25T10:53:48,42.805,6.029,CST-1368DR,5509,7693,14997,0.162,551
2021-04-25T10:56:49,42.805,6.029,CST-1368DR,5509,7693,14996,0.162,551
2021-04-25T10:59:51,42.805,6.029,CST-1368DR,5509,7693,14997,0.162,550
2021-04-25T11:02:53,42.805,6.029,CST-1368DR,5509,7693,14996,0.162,551
2021-04-25T11:05:54,42.805,6.029,CST-1368DR,5509,7693,14997,0.162,551
2021-04-25T11:08:56,42.805,6.029,CST-1368DR,5509,7693,14997,0.162,551
2021-04-25T11:11:57,42.805,6.029,CST-1368DR,5509,7693,14996,0.162,551
2021-04-25T11:14:59,42.805,6.029,CST-1368DR,5509,7692,14994,0.163,551
2021-04-25T11:18:00,42.805,6.029,CST-1368DR,5509,7694,14999,0.161,551
2021-04-25T11:21:02,42.805,6.029,CST-1368DR,5509,7693,14996,0.162,551
2021-04-25T11:24:04,42.805,6.029,CST-1368DR,5509,7693,14996,0.162,551
2021-04-25T11:27:05,42.805,6.029,CST-1368DR,5509,7694,14998,0.162,551
2021-04-25T11:30:07,42.805,6.029,CST-1368DR,5509,7693,14996,0.162,551
2021-04-25T11:33:08,42.805,6.029,CST-1368DR,5509,7692,14994,0.163,551
2021-04-25T11:36:10,42.805,6.029,CST-1368DR,5509,7694,14998,0.162,551
2021-04-25T11:39:12,42.805,6.029,CST-1368DR,5509,7693,14997,0.162,551
2021-04-25T11:42:13,42.805,6.029,CST-1368DR,5509,7693,14997,0.162,551
2021-04-25T11:45:15,42.805,6.029,CST-1368DR,5509,7693,14997,0.162,551
2021-04-25T11:48:16,42.805,6.029,CST-1368DR,5509,7692,14994,0.163,551
2021-04-25T11:51:18,42.805,6.029,CST-1368DR,5509,7694,14999,0.161,551
2021-04-25T11:54:19,42.805,6.029,CST-1368DR,5509,7695,15000,0.161,551
2021-04-25T11:57:21,42.805,6.029,CST-1368DR,5509,7693,14997,0.162,551
2021-04-25T12:00:23,42.805,6.029,CST-1368DR,5509,7694,14999,0.161,551
2021-04-25T12:03:24,42.805,6.029,CST-1368DR,5509,7694,14998,0.162,551
2021-04-25T12:06:26,42.805,6.029,CST-1368DR,5509,7692,14995,0.162,551
2021-04-25T12:09:27,42.805,6.029,CST-1368DR,5509,7693,14997,0.162,551
2021-04-25T12:12:29,42.805,6.029,CST-1368DR,5509,7692,14995,0.162,551
2021-04-25T12:15:30,42.805,6.029,CST-1368DR,5509,7693,14996,0.162,551
2021-04-25T12:18:32,42.805,6.029,CST-1368DR,5509,7692,14994,0.163,550
2021-04-25T12:21:34,42.805,6.029,CST-1368DR,5509,7691,14992,0.163,551
2021-04-25T12:24:35,42.805,6.029,CST-1368DR,5509,7693,14996,0.162,551
2021-04-25T12:27:37,42.805,6.029,CST-1368DR,5509,7692,14994,0.163,551
2021-04-25T12:30:38,42.805,6.029,CST-1368DR,5509,7692,14995,0.162,551
2021-04-25T12:33:40,42.805,6.029,CST-1368DR,5509,7693,14997,0.162,551
2021-04-25T12:36:42,42.805,6.029,CST-1368DR,5509,7693,14997,0.162,551
2021-04-25T12:39:43,42.805,6.029,CST-1368DR,5509,7693,14996,0.162,551
2021-04-25T12:42:45,42.805,6.029,CST-1368DR,5509,7692,14994,0.163,551
2021-04-25T12:45:46,42.805,6.029,CST-1368DR,5509,7692,14994,0.163,551
2021-04-25T12:48:48,42.805,6.029,CST-1368DR,5509,7691,14993,0.163,551
2021-04-25T12:51:49,42.805,6.029,CST-1368DR,5509,7690,14991,0.163,551
2021-04-25T12:54:51,42.805,6.029,CST-1368DR,5509,7692,14995,0.162,551
2021-04-25T12:57:53,42.805,6.029,CST-1368DR,5509,7693,14996,0.162,551
2021-04-25T13:00:54,42.805,6.029,CST-1368DR,5509,7693,14996,0.162,551
2021-04-25T13:03:56,42.805,6.029,CST-1368DR,5509,7690,14991,0.163,551
2021-04-25T13:06:57,42.805,6.029,CST-1368DR,5509,7692,14994,0.163,551
2021-04-25T13:09:59,42.805,6.029,CST-1368DR,5509,7690,14991,0.163,551
2021-04-25T13:13:01,42.805,6.029,CST-1368DR,5509,7693,14996,0.162,551
2021-04-25T13:16:02,42.805,6.029,CST-1368DR,5509,7690,14991,0.163,551
2021-04-25T13:19:04,42.805,6.029,CST-1368DR,5509,7692,14995,0.162,551
2021-04-25T13:22:05,42.805,6.029,CST-1368DR,5509,7692,14994,0.163,551
2021-04-25T13:25:07,42.805,6.029,CST-1368DR,5509,7691,14992,0.163,551
2021-04-25T13:28:08,42.805,6.029,CST-1368DR,5509,7691,14992,0.163,551
2021-04-25T13:31:10,42.805,6.029,CST-1368DR,5509,7692,14994,0.163,551
2021-04-25T13:34:12,42.805,6.029,CST-1368DR,5509,7692,14995,0.162,551
2021-04-25T13:37:13,42.805,6.029,CST-1368DR,5509,7692,14994,0.163,551
2021-04-25T13:40:15,42.805,6.029,CST-1368DR,5509,7693,14996,0.162,551
2021-04-25T13:43:16,42.805,6.029,CST-1368DR,5509,7691,14993,0.163,551
2021-04-25T13:46:18,42.805,6.029,CST-1368DR,5509,7692,14994,0.163,551
2021-04-25T13:49:19,42.805,6.029,CST-1368DR,5509,7690,14992,0.163,551
2021-04-25T13:52:21,42.805,6.029,CST-1368DR,5509,7690,14991,0.163,551
2021-04-25T13:55:23,42.805,6.029,CST-1368DR,5509,7693,14996,0.162,551
2021-04-25T13:58:24,42.805,6.029,CST-1368DR,5509,7690,14990,0.164,551
2021-04-25T14:01:26,42.805,6.029,CST-1368DR,5509,7692,14994,0.163,550
2021-04-25T14:04:27,42.805,6.029,CST-1368DR,5509,7687,14986,0.165,551
2021-04-25T14:07:29,42.805,6.029,CST-1368DR,5508,7689,14992,0.163,551
2021-04-25T14:10:31,42.805,6.029,CST-1368DR,5509,7691,14994,0.163,551
2021-04-25T14:13:32,42.805,6.029,CST-1368DR,5509,7692,14995,0.162,551
2021-04-25T14:16:34,42.805,6.029,CST-1368DR,5509,7692,14995,0.162,551
2021-04-25T14:19:35,42.805,6.029,CST-1368DR,5508,7693,14999,0.161,551
2021-04-25T14:22:37,42.805,6.029,CST-1368DR,5508,7690,14994,0.163,551
2021-04-25T14:25:38,42.805,6.029,CST-1368DR,5508,7692,14998,0.162,551
2021-04-25T14:28:40,42.805,6.029,CST-1368DR,5508,7691,14996,0.162,551
2021-04-25T14:31:42,42.805,6.029,CST-1368DR,5508,7690,14993,0.163,551
2021-04-25T14:34:43,42.805,6.029,CST-1368DR,5508,7690,14994,0.163,551
2021-04-25T14:37:45,42.805,6.029,CST-1368DR,5509,7692,14994,0.163,551
2021-04-25T14:40:46,42.805,6.029,CST-1368DR,5508,7691,14996,0.162,551
2021-04-25T14:43:48,42.805,6.029,CST-1368DR,5508,7691,14995,0.162,551
2021-04-25T14:46:50,42.805,6.029,CST-1368DR,5508,7691,14996,0.162,551
2021-04-25T14:49:51,42.805,6.029,CST-1368DR,5508,7692,14997,0.162,551
2021-04-25T14:52:53,42.805,6.029,CST-1368DR,5508,7693,14999,0.161,551
2021-04-25T14:55:54,42.805,6.029,CST-1368DR,5508,7692,14997,0.162,551
2021-04-25T14:58:56,42.805,6.029,CST-1368DR,5508,7691,14995,0.162,551
2021-04-25T15:01:57,42.805,6.029,CST-1368DR,5508,7693,14999,0.161,551
2021-04-25T15:04:59,42.805,6.029,CST-1368DR,5508,7692,14997,0.162,551
2021-04-25T15:08:01,42.805,6.029,CST-1368DR,5508,7690,14994,0.163,551
2021-04-25T15:11:02,42.805,6.029,CST-1368DR,5508,7691,14995,0.162,551
2021-04-25T15:14:04,42.805,6.029,CST-1368DR,5508,7692,14998,0.162,551
2021-04-25T15:17:05,42.805,6.029,CST-1368DR,5508,7691,14995,0.162,551
2021-04-25T15:20:07,42.805,6.029,CST-1368DR,5508,7689,14992,0.163,551
2021-04-25T15:23:09,42.805,6.029,CST-1368DR,5508,7691,14996,0.162,551
2021-04-25T15:26:10,42.805,6.029,CST-1368DR,5508,7692,14997,0.162,551
2021-04-25T15:29:12,42.805,6.029,CST-1368DR,5508,7692,14997,0.162,551
2021-04-25T15:32:13,42.805,6.029,CST-1368DR,5508,7691,14995,0.162,551
2021-04-25T15:35:15,42.805,6.029,CST-1368DR,5508,7691,14995,0.162,551
2021-04-25T15:38:16,42.805,6.029,CST-1368DR,5508,7692,14997,0.162,551
2021-04-25T15:41:18,42.805,6.029,CST-1368DR,5508,7691,14995,0.162,551
2021-04-25T15:44:20,42.805,6.029,CST-1368DR,5508,7689,14992,0.163,551
2021-04-25T15:47:21,42.805,6.029,CST-1368DR,5508,7692,14997,0.162,551
2021-04-25T15:50:23,42.805,6.029,CST-1368DR,5508,7691,14996,0.162,551
2021-04-25T15:53:24,42.805,6.029,CST-1368DR,5508,7692,14997,0.162,550
2021-04-25T15:56:26,42.805,6.029,CST-1368DR,5508,7688,14989,0.164,551
2021-04-25T15:59:27,42.805,6.029,CST-1368DR,5508,7691,14996,0.162,551
2021-04-25T16:02:29,42.805,6.029,CST-1368DR,5508,7689,14992,0.163,551
2021-04-25T16:05:31,42.805,6.029,CST-1368DR,5508,7691,14995,0.162,551
2021-04-25T16:08:32,42.805,6.029,CST-1368DR,5508,7690,14994,0.163,551
2021-04-25T16:11:34,42.805,6.029,CST-1368DR,5508,7691,14995,0.162,551
2021-04-25T16:14:35,42.805,6.029,CST-1368DR,5508,7691,14995,0.162,551
2021-04-25T16:17:37,42.805,6.029,CST-1368DR,5508,7690,14993,0.163,551
2021-04-25T16:20:39,42.805,6.029,CST-1368DR,5508,7687,14988,0.164,551
2021-04-25T16:23:40,42.805,6.029,CST-1368DR,5508,7692,14998,0.162,551
2021-04-25T16:26:42,42.805,6.029,CST-1368DR,5508,7691,14995,0.162,551
2021-04-25T16:29:43,42.805,6.029,CST-1368DR,5508,7689,14992,0.163,551
2021-04-25T16:32:45,42.805,6.029,CST-1368DR,5508,7691,14996,0.162,551
2021-04-25T16:35:46,42.805,6.029,CST-1368DR,5508,7690,14993,0.163,551
2021-04-25T16:38:48,42.805,6.029,CST-1368DR,5508,7692,14998,0.162,551
2021-04-25T16:41:50,42.805,6.029,CST-1368DR,5508,7682,14978,0.167,551
2021-04-25T16:44:51,42.805,6.029,CST-1368DR,5508,7688,14990,0.164,551
2021-04-25T16:47:53,42.805,6.029,CST-1368DR,5508,7689,14991,0.163,551
2021-04-25T16:50:54,42.805,6.029,CST-1368DR,5508,7691,14995,0.162,551